Regional Weather Roundup
Issued by NWS Northern Indiana

Home | Current Version | Previous Version | Graphics & Text | Print | Product List | Glossary On
Versions: 1 2 3 4 5 6 7 8 9 10 11 12 13 14 15 16 17 18 19 20 21 22 23 24 25 26 27 28 29 30 31 32 33 34 35 36 37 38 39 40 41 42 43 44 45 46 47 48 49 50
000
ASUS43 KIWX 291100
RWRIWX

KIWX WEATHER ROUNDUP
NATIONAL WEATHER SERVICE NORTHERN INDIANA
700 AM EDT FRI AUG 29 2014

NOTE: "FAIR" INDICATES FEW OR NO CLOUDS BELOW 12,000 FEET WITH NO
SIGNIFICANT WEATHER AND/OR OBSTRUCTIONS TO VISIBILITY.

* THESE STATIONS ARE NOT UNDER NWS QUALITY CONTROL. THEY ALSO MAY NOT
  REPORT WEATHER SUCH AS PRECIPITATION OR FOG.

INZ001>027-291200-
NORTHERN INDIANA

CITY           SKY/WX    TMP DP  RH WIND       PRES   REMARKS
GARY*          MOCLDY    72  64  78 SE10      29.99S
VALPARAISO     CLOUDY    67  62  84 SE8       30.03R
SOUTH BEND     CLOUDY    68  59  73 SE10      30.05R
ELKHART*       CLOUDY    64  59  82 SE7       30.06
GOSHEN         CLOUDY    65  59  81 SE9       30.07R
MONTICELLO*    MOCLDY    66  64  92 SE3       30.01S
ANGOLA*        MOCLDY    61  55  82 SE7       30.09F
FORT WAYNE     CLOUDY    61  58  90 E6        30.09R
PERU/GRISSOM   CLEAR     64  64 100 SE6       30.04S

$$
INZ028>050-291200-
CENTRAL INDIANA

CITY           SKY/WX    TMP DP  RH WIND       PRES   REMARKS
LAFAYETTE      CLOUDY    69  63  81 SE6       30.01S
KOKOMO*        CLEAR     64  61  88 SE8       30.05S
MUNCIE*        PTCLDY    66  59  78 SE8       30.07R
INDIANAPOLIS   CLOUDY    68  62  81 E8        30.03S

$$
MIZ043>046-050>051-056>058-064>065-071>073-077>080-291200-
SOUTHWEST LOWER MICHIGAN

CITY           SKY/WX    TMP DP  RH WIND       PRES   REMARKS
BATTLE CREEK   MOCLDY    63  48  58 SE7       30.09R
BENTON HARBOR  CLOUDY    65  59  81 SE9       30.02S
COLDWATER*     CLOUDY    62  52  70 SE5       30.09S
HILLSDALE*     PTCLDY    60  51  71 SE8       30.11F
HOLLAND        CLOUDY    66  58  75 SE9       30.05R
GRAND RAPIDS   MOCLDY    62  58  86 SE7       30.07S
KALAMAZOO      MOCLDY    63  53  70 SE3       30.09R
STURGIS*         N/A     63  55  77 SE8       30.08R
THREE RIVERS*  FAIR      65  55  70 SE6       30.08S

$$
OHZ001>008-015>018-024>025-291200-
NORTHWEST OHIO

CITY           SKY/WX    TMP DP  RH WIND       PRES   REMARKS
DEFIANCE       PTCLDY    61  55  81 CALM      30.11R
FINDLAY        PTCLDY    58  52  80 SE7       30.11R
TOLEDO EXPRESS PTCLDY    56  50  80 CALM      30.12R
TOLEDO METCALF PTCLDY    57  50  77 CALM      30.13R
LIMA           PTCLDY    61  53  75 SE8       30.11R

$$
&&



USA.gov is the U.S. government's official web portal to all federal, state and local government web resources and services.